Regional Weather Roundup
Issued by NWS

Home | Current Version | Previous Version | Text Only | Print | Product List | Glossary Off
Versions: 1 2 3 4 5 6 7 8 9 10 11 12 13 14 15 16 17 18 19 20 21 22 23 24 25 26 27 28 29 30 31 32 33 34 35 36 37 38 39 40 41 42 43 44 45 46 47 48 49 50

597
ASUS45 KSLC 280410
RWRUT

UTAH REGIONAL WEATHER ROUNDUP
NATIONAL WEATHER SERVICE SALT LAKE CITY UT
1000 PM MDT THU APR 27 2017

UTZ001>011-023>025-280500-

NORTHERN UTAH

CITY           SKY/WX    TMP DP  RH WIND       PRES   REMARKS
BRIGHAM CITY   PTCLDY    41  24  51 NW8       29.87R
HILL AFB       PTCLDY    40  25  55 N7        29.85R
LOGAN          CLOUDY    40  23  50 NW14      29.86R WCI  32
OGDEN          MOCLDY    38  30  73 N5        29.86R WCI  34
SALT LAKE CITY MOCLDY    43  32  65 N7        29.85R
TOOELE VALLEY  CLOUDY    43  28  56 NW15      29.89R
WENDOVER       PTCLDY    43  17  35 NW20      29.90R
HEBER CITY     CLOUDY    36  27  69 CALM      29.85R
WEST JORDAN    CLOUDY    44  35  72 N6        29.87R

$$

UTZ011>015-024>027-280500-

CENTRAL/NORTHEAST UTAH

CITY           SKY/WX    TMP DP  RH WIND       PRES   REMARKS
PROVO AIRPORT  PTCLDY    43  25  49 NW9       29.87R
MOAB/CANYONLAN PTCLDY    48  17  29 W15       29.74R
DELTA          PTCLDY    37  28  70 N7        29.89R WCI  32
PRICE          CLEAR     37  20  50 NW10      29.81R WCI  30
RICHFIELD      CLOUDY    39  34  81 N12       29.90R WCI  32
ROOSEVELT      CLEAR     37  16  41 W12       29.79R WCI  30
VERNAL         CLOUDY    43  18  36 SE6       29.75R

$$

UTZ013>016-019>022-027-280500-

SOUTHERN UTAH

CITY           SKY/WX    TMP DP  RH WIND       PRES   REMARKS
BRYCE CANYON   PTCLDY    36  21  54 N16       29.83S WCI  26
CEDAR CITY     CLEAR     42  26  53 N10       29.82R
MILFORD        MOCLDY    41  29  62 N8        29.86R
ST GEORGE      PTCLDY    65  19  17 N6        29.70R
HANKSVILLE     CLEAR     46  23  39 NW8       29.81R
KANAB          MOCLDY    55  16  21 NW15G23   29.78R
BLANDING       MOCLDY    45  13  27 W7        29.84R

$$

REGIONAL REPORTS     COLORADO/ARIZONA

CITY           SKY/WX    TMP DP  RH WIND       PRES   REMARKS
CRAIG, CO      CLOUDY    35  26  69 W9        29.77R WCI  28
GRAND JUNCTION MOCLDY    47  19  33 E8        29.74R
RIFLE, CO      CLOUDY    39  29  67 W7        29.78R WCI  34
MONTROSE, CO   CLEAR     42  17  36 N5        29.79R
CORTEZ, CO     CLOUDY    44  18  35 N7        29.77R
COLORADO CITY    N/A     54  18  24 NW8       29.78R
PAGE, AZ       CLOUDY    61  22  22 NW9       29.72R
GRAND CANYON   MOCLDY    51  19  28 SW9       29.81R
KINGMAN, AZ    MOCLDY    61  26  26 S8        29.70R
FLAGSTAFF, AZ  PTCLDY    53  19  26 W15G28    29.83R

$$

REGIONAL REPORTS    NEVADA/IDAHO/WYOMING

CITY           SKY/WX    TMP DP  RH WIND       PRES   REMARKS
LAS VEGAS, NV  PTCLDY    75  12   9 NW21G33   29.65R
ELY, NY        CLOUDY    37  17  44 NW10      29.92R WCI  30
ELKO, NV       CLEAR     37  21  52 NW9       29.95R WCI  30
POCATELLO, ID  CLOUDY    39  23  52 SW21      29.85R WCI  29
BURLEY, ID     CLEAR     36  21  54 SW12      29.88R WCI  28
EVANSTON, WY   CLOUDY    27  23  85 W10       29.83R WCI  17
ROCK SPRINGS,  CLOUDY    33  20  58 W21       29.75R WCI  21
KEMMERER, WY     N/A     28  23  80 W13       29.79S WCI  18

$$




USA.gov is the U.S. government's official web portal to all federal, state and local government web resources and services.